Home   Weather   Sidon   Past weeks

Flag for Lebanon Past Weather in Sidon, Lebanon — Yesterday and Last 2 Weeks

77 °F

Partly sunny.

Feels Like: 79 °F
Forecast: 71 / 84 °F
Wind: 3 mph from Northwest

Location: Beirut Airport

Current Time: Oct 23, 2016 at 11:07:35 AM

Latest Report: Oct 23, 2016 at 10:00 AM

Visibility: 5 mi

Pressure: 30.09 "Hg

Humidity: 54%

Dew Point: 59 °F

Location of SidonLocation

Past Weather in Sidon — Graph


Sidon Temperature Yesterday

Maximum temperature yesterday: 79 °F (at 11:00 AM)
Minimum temperature yesterday: 73 °F (at 6:00 AM)
Average temperature yesterday: 76 °F

High & Low Weather Summary for the Past Weeks

High88 °F (Oct 13, 3:00 PM)74% (Oct 9, 10:00 PM)30.09 "Hg (Oct 9, 10:00 PM)
Low70 °F (Oct 16, 6:00 AM)26% (Oct 14, 4:00 AM)29.95 "Hg (Oct 16, 4:00 PM)
Average77 °F56%30.01 "Hg
* Reported Oct 8 10:00 AM — Oct 23 10:00 AM, Sidon, Weather by CustomWeather, © 2016

Note: Actual official high and low records may vary slightly from our data, if they occured in-between our weather recording intervals... More about our weather records


Sidon Weather History for the Previous 24 Hours

Scroll right to see more
Time TempWeatherWind HumidityBarometerVisibility
10:00 AM
Sun, Oct 23
77 °FPartly sunny.3 mph54%30.09 "Hg5 mi
9:00 AM73 °FPartly sunny.6 mph57%30.09 "Hg5 mi
8:00 AM72 °FPartly sunny.5 mph61%30.09 "Hg5 mi
7:00 AM72 °FPartly sunny.6 mph61%30.07 "Hg5 mi
6:00 AM72 °FPassing clouds.6 mph61%30.07 "Hg5 mi
5:00 AM72 °FPassing clouds.5 mph61%30.04 "HgN/A
4:00 AM72 °FPassing clouds.6 mph61%30.07 "HgN/A
3:00 AM72 °FPassing clouds.5 mph61%30.07 "HgN/A
2:00 AM72 °FPassing clouds.6 mph65%30.07 "HgN/A
1:00 AM72 °FPassing clouds.3 mph69%30.07 "HgN/A
12:00 AM72 °FPassing clouds.5 mph69%30.07 "HgN/A
11:00 PM
Sat, Oct 22
73 °FPassing clouds.3 mph65%30.07 "HgN/A
10:00 PM73 °FPassing clouds.3 mph65%30.07 "HgN/A
9:00 PM75 °FPassing clouds.1 mph61%30.07 "HgN/A
8:00 PM75 °FPassing clouds.6 mph61%30.04 "HgN/A
7:00 PM75 °FPassing clouds.7 mph61%30.04 "HgN/A
6:00 PM77 °FPassing clouds.8 mph54%30.04 "HgN/A
5:00 PM77 °FPartly sunny.8 mph51%30.04 "HgN/A
4:00 PM77 °FPartly sunny.6 mph51%30.04 "HgN/A
3:00 PM77 °FPartly sunny.7 mph54%30.04 "HgN/A
2:00 PM77 °FScattered clouds.8 mph61%30.04 "Hg4 mi
1:00 PM79 °FScattered clouds.9 mph58%30.04 "Hg4 mi
12:00 PM79 °FScattered clouds.7 mph58%30.04 "Hg4 mi
11:00 AM79 °FScattered clouds.7 mph58%30.04 "HgN/A
Weather by CustomWeather, © 2016

See weather overviewHow to use our weather pages